WJA1550 CYYC-KSEA

Flight info

Callsign WJA1550
Flight time N/A
Altitude 34000
Route DUMRA Q890 MEKPI DCT TWIGY DCT GEG GLASR3
Aircraft B738/M-SDE2E3FGHIRWXY/LB1

Departure

Time 2026-04-27 17:29
Airport Calgary International Airport (CYYC)

Arrival

Time N/A
Airport Seattle–Tacoma International Airport (KSEA)
Time Latitude Longitude Altitude Speed Heading
2026-04-27 17:18 51.12884 -114.00533 3567 ft 0 kts 90°
2026-04-27 17:18 51.12884 -114.00548 3567 ft 2 kts 89°
2026-04-27 17:19 51.12884 -114.00572 3567 ft 2 kts 90°
2026-04-27 17:19 51.12884 -114.00596 3567 ft 2 kts 89°
2026-04-27 17:19 51.12886 -114.00620 3567 ft 2 kts 116°
2026-04-27 17:19 51.12895 -114.00638 3567 ft 2 kts 148°
2026-04-27 17:20 51.12907 -114.00645 3567 ft 0 kts 176°
2026-04-27 17:20 51.12914 -114.00645 3567 ft 1 kts 181°
2026-04-27 17:20 51.12915 -114.00645 3567 ft 0 kts 180°
2026-04-27 17:22 51.12905 -114.00645 3567 ft 2 kts 179°
2026-04-27 17:22 51.12887 -114.00645 3567 ft 3 kts 179°
2026-04-27 17:22 51.12838 -114.00643 3567 ft 10 kts 179°
2026-04-27 17:23 51.12752 -114.00655 3565 ft 7 kts 226°
2026-04-27 17:23 51.12741 -114.00735 3565 ft 6 kts 266°
2026-04-27 17:23 51.12745 -114.00821 3563 ft 9 kts 276°
2026-04-27 17:23 51.12752 -114.00945 3562 ft 12 kts 276°
2026-04-27 17:24 51.12779 -114.01008 3562 ft 4 kts 298°
2026-04-27 17:24 51.12810 -114.01089 3559 ft 12 kts 299°
2026-04-27 17:24 51.12779 -114.01217 3554 ft 12 kts 230°
2026-04-27 17:24 51.12791 -114.01327 3552 ft 11 kts 311°
2026-04-27 17:25 51.12846 -114.01424 3551 ft 12 kts 311°
2026-04-27 17:25 51.12893 -114.01540 3550 ft 12 kts 279°
2026-04-27 17:25 51.12906 -114.01663 3550 ft 9 kts 314°
2026-04-27 17:25 51.12967 -114.01681 3550 ft 8 kts
2026-04-27 17:26 51.13028 -114.01681 3550 ft 8 kts
2026-04-27 17:26 51.13082 -114.01702 3550 ft 7 kts 315°
2026-04-27 17:26 51.13093 -114.01771 3550 ft 6 kts 266°
2026-04-27 17:26 51.13098 -114.01836 3550 ft 8 kts 270°
2026-04-27 17:27 51.13097 -114.01926 3550 ft 7 kts 269°
2026-04-27 17:27 51.13097 -114.02007 3552 ft 10 kts 270°
2026-04-27 17:27 51.13061 -114.02133 3553 ft 16 kts 176°
2026-04-27 17:27 51.12983 -114.02132 3553 ft 10 kts 181°
2026-04-27 17:28 51.12792 -114.02135 3553 ft 58 kts 180°
2026-04-27 17:28 51.12177 -114.02132 3553 ft 117 kts 180°
2026-04-27 17:28 51.10087 -114.02139 4105 ft 163 kts 179°
2026-04-27 17:29 51.08932 -114.02165 4607 ft 175 kts 180°
2026-04-27 17:29 51.07663 -114.02210 5068 ft 188 kts 180°
2026-04-27 17:29 51.06338 -114.02252 5530 ft 196 kts 180°
2026-04-27 17:29 51.04971 -114.02483 5991 ft 200 kts 197°
2026-04-27 17:30 51.03707 -114.03361 6456 ft 204 kts 204°
2026-04-27 17:30 51.00896 -114.05147 7393 ft 234 kts 199°
2026-04-27 17:30 50.99308 -114.05991 7938 ft 247 kts 199°
2026-04-27 17:31 50.97661 -114.06863 8675 ft 254 kts 199°
2026-04-27 17:31 50.95977 -114.07764 9459 ft 260 kts 200°
2026-04-27 17:31 50.94265 -114.08684 10157 ft 267 kts 200°
2026-04-27 17:31 50.92500 -114.09631 10753 ft 274 kts 200°
2026-04-27 17:32 50.90652 -114.10622 11281 ft 289 kts 200°
2026-04-27 17:32 50.86672 -114.12748 12319 ft 313 kts 200°
2026-04-27 17:32 50.84600 -114.13852 12817 ft 316 kts 200°
2026-04-27 17:33 50.82517 -114.14960 13341 ft 319 kts 200°
2026-04-27 17:33 50.80419 -114.16076 13864 ft 321 kts 200°
2026-04-27 17:33 50.78313 -114.17194 14367 ft 325 kts 200°
2026-04-27 17:33 50.76149 -114.18346 14878 ft 336 kts 200°
2026-04-27 17:34 50.73902 -114.19540 15390 ft 348 kts 200°
2026-04-27 17:34 50.71574 -114.20778 15905 ft 357 kts 200°
2026-04-27 17:34 50.69230 -114.22020 16390 ft 359 kts 199°
2026-04-27 17:34 50.66839 -114.23283 16913 ft 363 kts 199°
2026-04-27 17:35 50.64447 -114.24547 17407 ft 368 kts 199°
2026-04-27 17:35 50.62000 -114.25827 17905 ft 369 kts 199°
2026-04-27 17:35 50.59551 -114.27091 18415 ft 373 kts 199°
2026-04-27 17:35 50.57092 -114.28355 18918 ft 378 kts 199°
2026-04-27 17:36 50.54597 -114.29636 19434 ft 380 kts 198°
2026-04-27 17:36 50.52044 -114.30948 19949 ft 385 kts 198°
2026-04-27 17:36 50.49522 -114.32243 20456 ft 389 kts 198°
2026-04-27 17:36 50.46911 -114.33583 20984 ft 393 kts 198°
2026-04-27 17:37 50.44305 -114.34920 21496 ft 398 kts 198°
2026-04-27 17:37 50.41662 -114.36274 22017 ft 402 kts 198°
2026-04-27 17:37 50.39020 -114.37627 22525 ft 407 kts 198°
2026-04-27 17:37 50.36306 -114.39014 23001 ft 412 kts 198°
2026-04-27 17:38 50.33573 -114.40411 23464 ft 417 kts 198°
2026-04-27 17:38 50.30835 -114.41809 23928 ft 421 kts 198°
2026-04-27 17:38 50.28061 -114.43268 24373 ft 424 kts 200°
2026-04-27 17:38 50.25335 -114.45038 24824 ft 428 kts 207°
2026-04-27 17:39 50.22760 -114.47353 25268 ft 431 kts 214°
2026-04-27 17:39 50.20306 -114.50034 25709 ft 434 kts 218°
2026-04-27 17:39 50.17912 -114.52895 26156 ft 435 kts 220°
2026-04-27 17:39 50.15541 -114.55834 26593 ft 434 kts 220°
2026-04-27 17:40 50.12928 -114.59102 27089 ft 434 kts 220°
2026-04-27 17:40 50.10593 -114.62007 27529 ft 434 kts 220°
2026-04-27 17:40 50.08217 -114.64941 27979 ft 434 kts 220°
2026-04-27 17:40 50.05867 -114.67816 28414 ft 434 kts 219°
2026-04-27 17:41 50.03484 -114.70712 28858 ft 436 kts 219°
2026-04-27 17:41 50.01081 -114.73618 29306 ft 438 kts 219°
2026-04-27 17:41 49.98678 -114.76511 29739 ft 439 kts 219°
2026-04-27 17:41 49.96275 -114.79396 30131 ft 442 kts 219°
2026-04-27 17:42 49.94958 -114.80973 30333 ft 443 kts 219°
2026-04-27 17:42 49.92522 -114.83887 30680 ft 446 kts 219°
2026-04-27 17:42 49.90087 -114.86788 31015 ft 447 kts 219°
2026-04-27 17:42 49.87620 -114.89724 31349 ft 446 kts 219°
2026-04-27 17:43 49.85150 -114.92657 31689 ft 444 kts 219°
2026-04-27 17:43 49.82697 -114.95567 32023 ft 445 kts 219°
2026-04-27 17:43 49.80255 -114.98463 32359 ft 445 kts 219°
2026-04-27 17:43 49.77783 -115.01390 32704 ft 445 kts 219°
2026-04-27 17:44 49.75280 -115.04349 33050 ft 444 kts 219°
2026-04-27 17:44 49.72844 -115.07224 33344 ft 444 kts 219°
2026-04-27 17:44 49.70371 -115.10139 33572 ft 444 kts 219°
2026-04-27 17:44 49.67887 -115.13067 33802 ft 443 kts 219°
2026-04-27 17:45 49.65426 -115.15963 33896 ft 444 kts 219°
2026-04-27 17:45 49.60514 -115.21728 33907 ft 442 kts 219°
2026-04-27 17:46 49.55571 -115.27517 33907 ft 446 kts 219°
2026-04-27 17:46 49.50650 -115.33261 33921 ft 442 kts 219°
2026-04-27 17:47 49.45776 -115.38941 33948 ft 441 kts 219°
2026-04-27 17:47 49.40871 -115.44633 33966 ft 442 kts 219°
2026-04-27 17:48 49.36001 -115.50266 33972 ft 441 kts 219°
2026-04-27 17:48 49.31085 -115.55952 33958 ft 442 kts 219°
2026-04-27 17:49 49.26185 -115.61611 33929 ft 441 kts 219°
2026-04-27 17:49 49.21287 -115.67252 33919 ft 443 kts 218°
2026-04-27 17:50 49.16375 -115.72884 33906 ft 444 kts 218°
2026-04-27 17:50 49.08976 -115.81351 33914 ft 442 kts 218°
2026-04-27 17:51 49.04086 -115.86925 33913 ft 441 kts 218°
2026-04-27 17:51 48.99182 -115.92515 33908 ft 441 kts 218°
2026-04-27 17:52 48.94255 -115.98154 33892 ft 442 kts 219°
2026-04-27 17:52 48.90260 -116.03017 33893 ft 443 kts 221°
2026-04-27 17:53 48.84703 -116.09949 33907 ft 443 kts 221°
2026-04-27 17:53 48.79946 -116.15857 33917 ft 442 kts 221°
2026-04-27 17:54 48.75157 -116.21761 33940 ft 442 kts 221°
2026-04-27 17:54 48.70399 -116.27582 33943 ft 442 kts 221°
2026-04-27 17:55 48.65581 -116.33469 33922 ft 442 kts 221°
2026-04-27 17:55 48.60810 -116.39275 33921 ft 443 kts 221°
2026-04-27 17:56 48.55995 -116.45115 33919 ft 443 kts 221°
2026-04-27 17:56 48.51215 -116.50911 33930 ft 442 kts 221°
2026-04-27 17:57 48.46405 -116.56728 33946 ft 443 kts 221°
2026-04-27 17:57 48.41638 -116.62470 33941 ft 442 kts 222°
2026-04-27 17:58 48.36829 -116.68246 33954 ft 442 kts 221°
2026-04-27 17:58 48.31990 -116.74035 33943 ft 444 kts 220°
2026-04-27 17:59 48.27135 -116.79827 33938 ft 444 kts 220°
2026-04-27 17:59 48.22326 -116.85563 33945 ft 442 kts 221°
2026-04-27 18:00 48.17493 -116.91309 33945 ft 443 kts 221°
2026-04-27 18:00 48.12660 -116.97042 33929 ft 444 kts 221°
2026-04-27 18:01 48.07852 -117.02738 33934 ft 443 kts 221°
2026-04-27 18:01 48.02984 -117.08492 33953 ft 447 kts 220°
2026-04-27 18:02 48.00198 -117.11774 33953 ft 449 kts 220°
2026-04-27 18:02 47.95951 -117.16771 34006 ft 451 kts 220°
2026-04-27 18:03 47.90974 -117.22632 33964 ft 454 kts 221°
2026-04-27 18:03 47.86008 -117.28429 33969 ft 451 kts 220°
2026-04-27 18:04 47.81061 -117.34191 33970 ft 453 kts 221°
2026-04-27 18:04 47.76103 -117.39966 33961 ft 453 kts 221°
2026-04-27 18:05 47.71141 -117.45729 33965 ft 453 kts 221°
2026-04-27 18:05 47.66183 -117.51473 33965 ft 452 kts 220°
2026-04-27 18:06 47.61432 -117.57502 33959 ft 448 kts 232°
2026-04-27 18:06 47.59627 -117.61177 33973 ft 441 kts 246°
2026-04-27 18:06 47.58459 -117.65329 33967 ft 434 kts 259°
2026-04-27 18:07 47.57589 -117.74047 33967 ft 424 kts 275°
2026-04-27 18:07 47.58046 -117.82661 33966 ft 416 kts 284°
2026-04-27 18:08 47.58945 -117.91045 33953 ft 414 kts 285°
2026-04-27 18:08 47.59806 -117.99501 33945 ft 414 kts 284°
2026-04-27 18:09 47.60630 -118.07912 33945 ft 411 kts 284°
2026-04-27 18:09 47.61419 -118.16241 33944 ft 408 kts 284°
2026-04-27 18:10 47.62198 -118.24577 33936 ft 410 kts 284°
2026-04-27 18:10 47.62965 -118.32897 33941 ft 409 kts 284°
2026-04-27 18:11 47.63733 -118.41277 33938 ft 410 kts 284°
2026-04-27 18:11 47.64490 -118.49654 33932 ft 410 kts 284°
2026-04-27 18:12 47.65231 -118.57958 33937 ft 408 kts 284°
2026-04-27 18:12 47.65976 -118.66326 33931 ft 410 kts 283°
2026-04-27 18:13 47.66714 -118.74691 33931 ft 409 kts 283°
2026-04-27 18:13 47.67447 -118.83063 33933 ft 410 kts 283°
2026-04-27 18:14 47.68174 -118.91417 33943 ft 411 kts 283°
2026-04-27 18:14 47.68899 -118.99832 33934 ft 410 kts 283°
2026-04-27 18:15 47.69609 -119.08192 33940 ft 409 kts 283°
2026-04-27 18:15 47.70314 -119.16540 33937 ft 410 kts 283°
2026-04-27 18:16 47.71014 -119.24921 33935 ft 410 kts 283°
2026-04-27 18:16 47.71714 -119.33386 33935 ft 408 kts 283°
2026-04-27 18:17 47.72403 -119.41773 33933 ft 408 kts 282°
2026-04-27 18:17 47.73087 -119.50154 33488 ft 413 kts 282°
2026-04-27 18:18 47.73430 -119.54375 33031 ft 414 kts 282°
2026-04-27 18:18 47.73771 -119.58619 32571 ft 411 kts 282°
2026-04-27 18:18 47.74101 -119.62762 32119 ft 408 kts 282°
2026-04-27 18:18 47.74432 -119.66940 31660 ft 405 kts 281°
2026-04-27 18:19 47.74761 -119.71111 31201 ft 406 kts 282°
2026-04-27 18:19 47.75089 -119.75253 30747 ft 407 kts 281°
2026-04-27 18:19 47.75419 -119.79429 30283 ft 407 kts 281°
2026-04-27 18:19 47.75743 -119.83546 29820 ft 408 kts 281°
2026-04-27 18:20 47.76069 -119.87723 29351 ft 408 kts 281°
2026-04-27 18:20 47.76396 -119.91933 28880 ft 409 kts 281°
2026-04-27 18:20 47.76716 -119.96077 28417 ft 410 kts 281°
2026-04-27 18:20 47.77039 -120.00282 27948 ft 410 kts 281°
2026-04-27 18:21 47.77361 -120.04497 27480 ft 412 kts 282°
2026-04-27 18:21 47.77685 -120.08752 27008 ft 413 kts 281°
2026-04-27 18:21 47.78001 -120.12935 26543 ft 413 kts 282°
2026-04-27 18:21 47.78318 -120.17181 26073 ft 413 kts 281°
2026-04-27 18:22 47.78634 -120.21439 25601 ft 413 kts 281°
2026-04-27 18:22 47.78943 -120.25633 25135 ft 414 kts 282°
2026-04-27 18:22 47.79252 -120.29859 24655 ft 413 kts 282°
2026-04-27 18:22 47.79559 -120.34068 24182 ft 410 kts 282°